EW7114 Weather Reports


time (UTC)temp
F
wind
direction
speed
knots
gust
knots
rain 1hr
in
rain 24hr
in
rain mn
in
humidity
%
barometer
mb
20260901034515 58 157 5.2 7.8 0.00 0.01 0.01 1 1011.5
20260901034004 58 192 4.3 8.7 0.00 0.01 0.01 1 1011.7
20260901033503 58 203 5.2 13.0 0.00 0.01 0.01 1 1011.7
20260901033006 58 173 7.0 12.2 0.00 0.01 0.01 1 1011.6
20260901032601 58 195 8.7 12.2 0.00 0.01 0.01 1 1011.5
20260901032058 58 183 7.0 10.4 0.00 0.01 0.01 1 1011.4
20260901031557 58 207 8.7 12.2 0.00 0.01 0.01 1 1011.4
20260901031056 57 184 7.8 10.4 0.00 0.01 0.01 1 1011.3
20260901030555 58 175 7.0 11.3 0.00 0.01 0.01 1 1011.2
20260901030053 58 201 7.8 12.2 0.00 0.01 0.01 1 1011.2
20260901025551 58 193 9.6 13.0 0.00 0.01 0.01 1 1011.2
20260901025050 58 187 8.7 13.0 0.00 0.01 0.01 1 1011.1
20260901024548 58 176 9.6 13.0 0.00 0.01 0.01 1 1011.1
20260901024048 58 191 8.7 15.6 0.00 0.01 0.01 1 1011.0
20260901023545 59 203 9.6 15.6 0.00 0.01 0.01 1 1011.0
20260901023044 59 178 9.6 18.2 0.00 0.01 0.01 1 1010.9
20260901022542 59 189 12.2 19.1 0.00 0.01 0.01 1 1010.9
20260901022041 59 158 11.3 19.1 0.00 0.01 0.01 1 1010.8
20260901021539 60 186 13.0 20.0 0.00 0.01 0.01 1 1010.6
20260901021038 60 167 13.0 20.0 0.00 0.01 0.01 1 1010.5
20260901020536 61 176 11.3 18.2 0.00 0.01 0.01 6 1010.5
20260901020035 61 194 11.3 13.9 0.00 0.01 0.01 6 1010.4
20260901015532 61 209 10.4 15.6 0.00 0.01 0.01 9 1010.4
20260901015034 61 197 11.3 15.6 0.00 0.01 0.01 12 1010.4
20260901014530 61 181 8.7 13.9 0.00 0.01 0.01 19 1010.4
20260901014033 62 195 7.0 17.4 0.00 0.01 0.01 26 1010.3
20260901013528 62 171 7.0 17.4 0.00 0.01 0.01 27 1010.3
20260901013039 62 149 7.8 15.6 0.00 0.01 0.01 25 1010.3
20260901012525 62 189 9.6 15.6 0.00 0.01 0.01 23 1010.4
20260901012027 62 192 9.6 13.9 0.00 0.01 0.01 23 1010.3
20260901011533 62 202 7.8 12.2 0.00 0.01 0.01 24 1010.4
20260901011020 62 186 7.0 13.0 0.00 0.01 0.01 23 1010.4
20260901010520 62 144 9.6 14.8 0.00 0.01 0.01 22 1010.5
20260901010017 62 155 11.3 15.6 0.00 0.01 0.01 22 1010.5
20260901005514 62 147 11.3 15.6 0.00 0.01 0.01 20 1010.5
20260901005013 63 142 10.4 18.2 0.00 0.01 0.01 21 1010.7
20260901004512 63 114 13.9 18.2 0.00 0.01 0.01 23 1010.8
20260901004011 62 103 11.3 16.5 0.00 0.01 0.01 20 1010.8
20260901003509 62 97 11.3 16.5 0.00 0.01 0.01 14 1010.8
20260901003008 62 120 11.3 18.2 0.00 0.01 0.01 10 1010.7
20260901002506 62 116 10.4 16.5 0.00 0.01 0.01 6 1010.7
20260901002005 62 120 9.6 20.0 0.00 0.01 0.01 6 1010.5
20260901001503 62 98 14.8 20.0 0.00 0.01 0.01 11 1010.5
20260901001001 62 111 9.6 17.4 0.00 0.01 0.01 15 1010.4
20260901000600 62 113 12.2 18.2 0.00 0.01 0.01 16 1010.3
20260901000100 63 101 11.3 18.2 0.00 0.01 0.01 23 1010.0
20260831235600 63 100 10.4 21.7 0.00 0.01 0.01 30 1010.1
20260831235056 63 107 10.4 21.7 0.00 0.01 0.01 35 1010.0
20260831234557 64 113 13.0 27.8 0.00 0.01 0.01 37 1009.7
20260831234053 64 108 20.0 27.8 0.00 0.01 0.01 45 1009.4
20260831233550 65 113 15.6 30.4 0.01 0.01 0.01 49 1009.4
20260831233049 67 122 18.2 30.4 0.01 0.01 0.01 53 1009.0
20260831232547 67 116 19.1 30.4 0.01 0.01 0.01 52 1008.8
20260831232046 68 128 22.6 33.9 0.01 0.01 0.01 52 1008.6
20260831231546 67 140 23.5 33.9 0.01 0.01 0.01 52 1008.5
20260831231043 67 109 18.2 32.2 0.01 0.01 0.01 50 1008.5
20260831230543 67 119 24.3 32.2 0.01 0.01 0.01 53 1008.3
20260831230041 67 100 18.2 32.2 0.01 0.01 0.01 52 1008.3
20260831225538 68 106 22.6 32.2 0.01 0.01 0.01 52 1008.0
20260831225037 69 108 18.2 33.0 0.01 0.01 0.01 52 1007.7
20260831224536 68 126 22.6 33.0 0.01 0.01 0.01 52 1006.9
20260831224037 71 90 23.5 32.2 0.01 0.01 0.01 52 1006.9
20260831223534 72 111 9.6 13.9 0.00 0.00 0.00 51 1006.7
20260831223034 72 126 0.9 5.2 0.00 0.00 0.00 52 1006.5
20260831222534 72 78 1.7 5.2 0.00 0.00 0.00 52 1006.3
20260831222033 72 78 3.5 7.0 0.00 0.00 0.00 52 1006.2
20260831221532 72 59 2.6 7.0 0.00 0.00 0.00 51 1006.1
20260831221031 72 355 1.7 8.7 0.00 0.00 0.00 51 1006.1
20260831220531 72 259 6.1 8.7 0.00 0.00 0.00 52 1006.2
20260831220031 72 305 7.0 8.7 0.00 0.00 0.00 52 1006.0
20260831215530 73 242 1.7 7.0 0.00 0.00 0.00 52 1006.1
20260831215034 72 257 3.5 7.8 0.00 0.00 0.00 51 1006.2
20260831214528 73 28 3.5 9.6 0.00 0.00 0.00 52 1006.1
20260831214027 73 345 5.2 9.6 0.00 0.00 0.00 52 1006.1
20260831213530 72 311 7.0 10.4 0.00 0.00 0.00 52 1006.1
20260831213026 72 299 7.8 10.4 0.00 0.00 0.00 51 1006.1
20260831212523 72 312 3.5 7.8 0.00 0.00 0.00 51 1006.1
20260831212022 73 319 3.5 7.8 0.00 0.00 0.00 51 1006.1
20260831211521 73 281 3.5 8.7 0.00 0.00 0.00 52 1006.0
20260831211020 74 258 4.3 15.6 0.00 0.00 0.00 52 1006.0
20260831210517 76 286 11.3 15.6 0.00 0.00 0.00 50 1005.9
20260831210016 78 105 0.0 8.7 0.00 0.00 0.00 45 1006.0
20260831205514 80 360 4.3 11.3 0.00 0.00 0.00 44 1005.9
20260831205013 80 98 5.2 11.3 0.00 0.00 0.00 41 1005.7
20260831204511 80 119 5.2 11.3 0.00 0.00 0.00 40 1005.7
20260831204013 80 117 3.5 11.3 0.00 0.00 0.00 42 1005.7
20260831203509 80 138 5.2 10.4 0.00 0.00 0.00 42 1005.6
20260831203006 81 154 7.8 13.0 0.00 0.00 0.00 41 1005.7
20260831202505 81 99 7.8 13.9 0.00 0.00 0.00 41 1005.9
20260831202004 81 118 9.6 13.9 0.00 0.00 0.00 40 1005.9
20260831201507 81 139 5.2 9.6 0.00 0.00 0.00 40 1006.0
20260831201002 81 130 6.1 10.4 0.00 0.00 0.00 42 1006.0
20260831200600 81 130 3.5 13.0 0.00 0.00 0.00 42 1006.0
20260831200139 80 169 6.1 13.0 0.00 0.00 0.00 42 1006.1
20260831195557 81 110 3.5 11.3 0.00 0.00 0.00 40 1006.2
20260831195054 81 74 7.0 11.3 0.00 0.00 0.00 41 1006.3
20260831194559 81 149 7.0 13.9 0.00 0.00 0.00 41 1006.5
20260831194052 81 117 7.8 13.9 0.00 0.00 0.00 41 1006.6
20260831193550 81 101 7.0 11.3 0.00 0.00 0.00 40 1006.8
20260831193049 82 141 7.8 12.2 0.00 0.00 0.00 41 1006.9
20260831192549 82 147 8.7 12.2 0.00 0.00 0.00 42 1007.0
20260831192045 81 165 5.2 13.0 0.00 0.00 0.00 44 1007.0
20260831191546 80 181 7.8 11.3 0.00 0.00 0.00 45 1007.2
20260831191043 80 174 5.2 11.3 0.00 0.00 0.00 45 1007.1
20260831190541 80 144 7.0 11.3 0.00 0.00 0.00 47 1007.3
20260831190042 80 147 6.1 10.4 0.00 0.00 0.00 48 1007.4
20260831185538 79 156 7.0 10.4 0.00 0.00 0.00 48 1007.5
20260831185036 79 172 6.1 12.2 0.00 0.00 0.00 48 1007.6
20260831184535 78 172 6.1 10.4 0.00 0.00 0.00 49 1007.8
20260831184033 78 137 7.0 10.4 0.00 0.00 0.00 49 1008.0
20260831183533 78 175 5.2 12.2 0.00 0.00 0.00 49 1008.1
20260831183031 78 181 7.0 12.2 0.00 0.00 0.00 48 1008.3
20260831182530 78 145 6.1 9.6 0.00 0.00 0.00 49 1008.3
20260831182028 77 178 6.1 10.4 0.00 0.00 0.00 49 1008.5
20260831181530 77 145 5.2 11.3 0.00 0.00 0.00 50 1008.6
20260831181025 77 180 8.7 13.0 0.00 0.00 0.00 49 1008.8
20260831180524 77 145 7.0 14.8 0.00 0.00 0.00 49 1008.9
20260831180022 76 168 7.8 14.8 0.00 0.00 0.00 50 1009.0
20260831175520 76 168 7.8 12.2 0.00 0.00 0.00 50 1009.2
20260831175019 75 174 7.8 13.0 0.00 0.00 0.00 50 1009.3
20260831174517 75 195 8.7 13.9 0.00 0.00 0.00 51 1009.3
20260831174017 75 165 8.7 14.8 0.00 0.00 0.00 51 1009.4
20260831173515 74 140 8.7 14.8 0.00 0.00 0.00 51 1009.5
20260831173013 74 150 8.7 16.5 0.00 0.00 0.00 50 1009.5
20260831172511 74 138 8.7 16.5 0.00 0.00 0.00 50 1009.6
20260831172011 74 150 9.6 14.8 0.00 0.00 0.00 50 1009.7
20260831171509 74 149 7.0 11.3 0.00 0.00 0.00 49 1009.7
20260831171008 73 136 7.8 10.4 0.00 0.00 0.00 49 1009.9
20260831170507 73 172 7.8 14.8 0.00 0.00 0.00 47 1010.0
20260831170008 73 172 9.6 14.8 0.00 0.00 0.00 48 1010.0
20260831165503 73 164 7.8 13.0 0.00 0.00 0.00 47 1010.1
20260831165001 72 180 7.0 12.2 0.00 0.00 0.00 45 1010.1
20260831164601 71 147 7.8 12.2 0.00 0.00 0.00 43 1010.2
20260831164059 72 132 8.7 12.2 0.00 0.00 0.00 41 1010.2
20260831163600 72 139 7.8 9.6 0.00 0.00 0.00 33 1010.3
20260831163056 71 137 7.0 9.6 0.00 0.00 0.00 14 1010.3
20260831162555 70 172 6.1 10.4 0.00 0.00 0.00 1 1010.3
20260831162055 69 155 6.1 10.4 0.00 0.00 0.00 1 1010.3
20260831161552 68 131 6.1 10.4 0.00 0.00 0.00 1 1010.4
20260831161050 67 139 4.3 7.0 0.00 0.00 0.00 1 1010.2
20260831160549 67 157 5.2 8.7 0.00 0.00 0.00 1 1010.3
20260831160047 66 146 6.1 9.6 0.00 0.00 0.00 1 1010.5
20260831155546 65 179 4.3 8.7 0.00 0.00 0.00 1 1010.4
20260831155044 62 197 4.3 7.0 0.00 0.00 0.00 1 1010.5
20260831154545 60 189 0.9 3.5 0.00 0.00 0.00 1 1010.5
20260831154046 60 56 0.0 0.0 0.00 0.00 0.00 1 1010.5
20260831153541 59 56 0.0 0.0 0.00 0.00 0.00 1 1010.6
20260831153039 59 56 0.0 0.0 0.00 0.00 0.00 1 1010.6
20260831152538 59 56 0.0 0.0 0.00 0.00 0.00 1 1010.7
20260831152035 58 56 0.0 0.0 0.00 0.00 0.00 1 1010.6
20260831151534 57 56 0.0 0.0 0.00 0.00 0.00 1 1010.6
20260831151032 57 56 0.0 1.7 0.00 0.00 0.00 1 1010.7
20260831150531 56 56 0.0 4.3 0.00 0.00 0.00 1 1010.7
20260831150029 56 56 0.0 4.3 0.00 0.00 0.00 1 1010.7
20260831145527 55 66 0.0 3.5 0.00 0.00 0.00 1 1010.8
20260831145026 55 47 0.9 3.5 0.00 0.00 0.00 1 1010.8
20260831144525 55 95 0.9 5.2 0.00 0.00 0.00 1 1010.7
20260831144025 54 95 0.9 5.2 0.00 0.00 0.00 1 1010.7
20260831143523 54 110 2.6 5.2 0.00 0.00 0.00 1 1010.7
20260831143022 54 114 0.9 3.5 0.00 0.00 0.00 1 1010.7
20260831142520 53 126 0.0 3.5 0.00 0.00 0.00 1 1010.7
20260831142019 53 184 0.0 2.6 0.00 0.00 0.00 1 1010.7
20260831141517 52 184 0.0 2.6 0.00 0.00 0.00 1 1010.6
20260831141015 51 184 0.0 0.9 0.00 0.00 0.00 1 1010.6
20260831140516 51 284 0.0 0.0 0.00 0.00 0.00 1 1010.6
20260831140029 50 284 0.0 0.0 0.00 0.00 0.00 1 1010.6
20260831135510 50 284 0.0 1.7 0.00 0.01 0.00 1 1010.4
20260831135009 50 284 0.0 1.7 0.00 0.01 0.00 1 1010.4
20260831134508 49 284 0.0 0.0 0.00 0.01 0.00 1 1010.4
20260831134007 49 284 0.0 0.9 0.00 0.01 0.00 1 1010.3
20260831133504 48 284 0.0 3.5 0.00 0.01 0.00 1 1010.2
20260831133003 48 284 0.9 3.5 0.00 0.01 0.00 1 1010.2
20260831132502 47 284 0.0 2.6 0.00 0.01 0.00 1 1010.2
20260831132002 47 284 0.0 0.0 0.00 0.01 0.00 1 1010.1
20260831131602 48 284 0.0 0.0 0.00 0.01 0.00 1 1010.1
20260831131058 49 284 0.0 0.0 0.00 0.01 0.00 1 1010.1
20260831130557 48 284 0.0 0.0 0.00 0.01 0.00 1 1010.1
20260831130056 48 284 0.0 0.0 0.00 0.01 0.00 1 1009.9
20260831125554 49 284 0.0 0.0 0.00 0.01 0.00 1 1009.8
20260831125052 49 284 0.0 0.0 0.00 0.01 0.00 1 1009.8
20260831124550 49 284 0.0 0.0 0.00 0.01 0.00 1 1009.7
20260831124048 48 284 0.0 0.0 0.00 0.01 0.00 1 1009.6
20260831123547 48 284 0.0 0.0 0.00 0.01 0.00 1 1009.6
20260831123045 48 284 0.0 2.6 0.00 0.01 0.00 1 1009.5
20260831122545 48 284 0.0 2.6 0.00 0.01 0.00 1 1009.7
20260831122046 49 319 0.0 0.0 0.00 0.01 0.00 1 1009.6
20260831121546 50 333 0.0 1.7 0.00 0.01 0.00 1 1009.7
20260831121041 50 333 0.9 1.7 0.00 0.01 0.00 1 1009.8
20260831120539 51 30 0.0 2.6 0.00 0.01 0.00 1 1009.8
20260831120038 51 30 0.0 4.3 0.00 0.01 0.00 1 1009.8
20260831115536 51 8 2.6 4.3 0.00 0.01 0.00 1 1009.9
20260831115034 51 86 0.0 1.7 0.00 0.01 0.00 1 1009.8
20260831114533 50 204 0.0 1.7 0.00 0.01 0.00 1 1009.9
20260831114031 50 204 0.0 1.7 0.00 0.01 0.00 1 1010.0
20260831113530 49 204 0.0 3.5 0.00 0.01 0.00 1 1010.0
20260831113029 48 204 0.0 4.3 0.00 0.01 0.00 1 1010.1
20260831112527 48 204 1.7 5.2 0.00 0.01 0.00 1 1010.0
20260831112025 48 204 3.5 5.2 0.00 0.01 0.00 1 1009.9
20260831111524 48 192 4.3 5.2 0.00 0.01 0.00 1 1009.9
20260831111022 47 172 2.6 3.5 0.00 0.01 0.00 1 1010.0
20260831110524 48 245 1.7 2.6 0.00 0.01 0.00 1 1009.9
20260831110020 50 245 0.0 0.0 0.00 0.01 0.00 1 1009.9
20260831105522 51 245 0.0 0.0 0.00 0.01 0.00 1 1009.8
20260831105017 51 245 0.0 0.0 0.00 0.01 0.00 1 1009.7
20260831104519 51 245 0.0 0.0 0.00 0.01 0.00 1 1009.7
20260831104014 51 245 0.0 0.0 0.00 0.01 0.00 1 1009.7
20260831103512 52 245 0.0 0.0 0.00 0.01 0.00 1 1009.8
20260831103010 52 245 0.0 0.0 0.00 0.01 0.00 1 1009.7
20260831102509 52 245 0.0 0.0 0.00 0.01 0.00 1 1009.8
20260831102008 52 245 0.0 0.0 0.00 0.01 0.00 1 1009.8
20260831101512 52 245 0.0 0.0 0.00 0.01 0.00 1 1009.7
20260831101005 52 245 0.0 2.6 0.00 0.01 0.00 1 1009.6
20260831100506 51 245 0.0 3.5 0.00 0.01 0.00 1 1009.6
20260831100002 51 245 0.0 2.6 0.00 0.01 0.00 1 1009.5
20260831095501 52 245 0.0 0.0 0.00 0.01 0.00 1 1009.4
20260831095100 52 245 0.0 0.0 0.00 0.01 0.00 1 1009.4
20260831094558 53 245 0.0 0.0 0.00 0.01 0.00 1 1009.4
20260831094057 52 245 0.0 0.0 0.00 0.01 0.00 1 1009.4
20260831093558 52 245 0.0 0.0 0.00 0.01 0.00 1 1009.3
20260831093057 52 245 0.0 0.0 0.00 0.01 0.00 1 1009.2
20260831092551 51 245 0.0 0.0 0.00 0.01 0.00 1 1009.2
20260831092052 50 245 0.0 0.0 0.00 0.01 0.00 1 1009.2
20260831091548 49 245 0.0 1.7 0.00 0.01 0.00 1 1009.3
20260831091050 49 245 0.0 3.5 0.00 0.01 0.00 1 1009.1
20260831090545 50 245 1.7 3.5 0.00 0.01 0.00 1 1009.2
20260831090056 53 245 0.0 0.0 0.00 0.01 0.00 1 1009.1
20260831085543 53 245 0.0 0.0 0.00 0.01 0.00 1 1009.1
20260831085041 53 245 0.0 0.0 0.00 0.01 0.00 1 1009.1
20260831084547 53 245 0.0 0.0 0.00 0.01 0.00 1 1009.2
20260831084037 52 245 0.0 0.0 0.00 0.01 0.00 1 1009.2
20260831083536 52 245 0.0 0.0 0.00 0.01 0.00 1 1009.2
20260831083035 52 245 0.0 0.0 0.00 0.01 0.00 1 1009.3
20260831082533 52 245 0.0 0.0 0.00 0.01 0.00 1 1009.3
20260831082031 52 245 0.0 0.9 0.00 0.01 0.00 1 1009.3
20260831081530 52 245 0.0 0.9 0.00 0.01 0.00 1 1009.4
20260831081029 55 245 0.0 0.0 0.00 0.01 0.00 1 1009.5
20260831080508 56 245 0.0 0.0 0.00 0.01 0.00 1 1009.4
20260831080032 56 245 0.0 0.0 0.00 0.01 0.00 1 1009.5
20260831075524 56 245 0.0 0.0 0.00 0.02 0.00 1 1009.5
20260831075022 56 245 0.0 0.0 0.00 0.02 0.00 1 1009.5
20260831074525 55 245 0.0 0.0 0.00 0.02 0.00 1 1009.5
20260831074022 55 245 0.0 0.0 0.00 0.02 0.00 1 1009.6
20260831073522 54 245 0.0 0.0 0.00 0.02 0.00 1 1009.6
20260831073017 53 245 0.0 2.6 0.00 0.02 0.00 1 1009.6
20260831072516 52 245 0.0 3.5 0.00 0.02 0.00 1 1009.6
20260831072014 52 245 2.6 3.5 0.00 0.02 0.00 1 1009.5
20260831071513 53 285 0.0 0.0 0.00 0.02 0.00 1 1009.6
20260831071011 54 284 0.0 0.0 0.00 0.02 0.00 1 1009.6
20260831070511 54 285 0.0 0.0 0.00 0.02 0.00 1 1009.6
20260831070009 54 284 0.0 0.0 0.00 0.02 0.00 1 1009.6
20260831065510 54 284 0.0 0.0 0.00 0.02 0.00 1 1009.6
20260831065005 54 285 0.0 2.6 0.00 0.02 0.00 1 1009.6
20260831064504 54 285 0.9 2.6 0.00 0.02 0.00 1 1009.6
20260831064002 55 285 0.0 2.6 0.00 0.02 0.00 1 1009.4
20260831063501 56 150 0.0 0.0 0.00 0.02 0.00 1 1009.4
20260831063059 56 150 0.0 0.0 0.00 0.02 0.00 1 1009.3
20260831062558 56 150 0.0 0.0 0.00 0.02 0.00 1 1009.3
20260831062057 56 150 0.0 0.0 0.00 0.02 0.00 1 1009.3
20260831061605 55 150 0.0 0.0 0.00 0.02 0.00 1 1009.3
20260831061054 56 150 0.0 0.0 0.00 0.02 0.00 1 1009.4
20260831060553 56 150 0.0 2.6 0.00 0.02 0.00 1 1009.4
20260831060058 56 150 1.7 4.3 0.00 0.02 0.00 1 1009.3
20260831055549 56 150 3.5 4.3 0.00 0.02 0.02 1 1009.3
20260831055048 56 150 0.0 2.6 0.00 0.02 0.02 1 1009.2
20260831054548 57 150 1.7 3.5 0.00 0.02 0.02 1 1009.2
20260831054046 57 150 0.9 6.1 0.00 0.02 0.02 1 1009.3
20260831053545 57 150 4.3 7.0 0.00 0.02 0.02 1 1009.3
20260831053058 57 153 3.5 7.8 0.00 0.02 0.02 1 1009.2
20260831052542 57 137 5.2 7.8 0.00 0.02 0.02 1 1009.4
20260831052044 57 182 2.6 4.3 0.00 0.02 0.02 1 1009.1
20260831051543 56 182 0.0 0.9 0.00 0.02 0.02 1 1009.1
20260831051037 56 182 0.0 0.0 0.00 0.02 0.02 1 1009.1
20260831050536 56 182 0.0 2.6 0.00 0.02 0.02 1 1009.0
20260831050042 56 182 0.0 4.3 0.00 0.02 0.02 1 1008.9
20260831045535 57 182 2.6 4.3 0.00 0.08 0.02 1 1008.9
20260831045032 58 182 2.6 4.3 0.00 0.08 0.02 1 1008.7
20260831044530 60 182 2.6 4.3 0.00 0.08 0.02 1 1008.7
20260831044028 60 182 0.0 0.0 0.00 0.08 0.02 1 1008.7
20260831043527 61 182 0.0 0.9 0.00 0.08 0.02 1 1008.6
20260831043026 61 182 0.0 2.6 0.00 0.08 0.02 1 1008.7
20260831042526 61 182 0.0 2.6 0.00 0.08 0.02 1 1008.7
20260831042023 62 182 0.0 3.5 0.00 0.08 0.02 1 1008.5
20260831041522 62 182 0.9 3.5 0.00 0.08 0.02 1 1008.6
20260831041022 63 182 0.0 0.0 0.00 0.08 0.02 1 1008.4
20260831040518 63 182 0.0 0.0 0.00 0.08 0.02 1 1008.4
20260831040018 63 182 0.0 3.5 0.00 0.08 0.02 1 1008.3
20260831035516 63 182 1.7 3.5 0.00 0.11 0.02 1 1008.4
20260831035014 63 182 2.6 3.5 0.00 0.11 0.02 1 1008.3